Location: Jetmore Motorplex
(37.9889°N, 99.8876°W)
Time: 18:49:44
(UTC+00:00)

Shenzhou-11 Module - Pass Details

Date: 17 February 2020
Orbit: 289 x 307 km, 42.8° (Epoch: 28 March)

Event Time Altitude Azimuth Distance (km) Brightness Sun altitude
Exits shadow 11:38:52 24° 103° (ESE) 661 4.0 -22.1°
Drops below altitude 10° 11:40:18 10° 81° (E) 1,167 5.6 -21.8°
Sets 11:42:21 0° 73° (ENE) 2,000 7.0 -21.4°
